Voltar ao catálogo

CZ-4 DEB

AtivoSSO
NORAD 20792·DEBRIS·🇨🇳 China

Lançado Sep 3, 1990 de Taiyuan Satellite Launch Center

Loading…

Próximas Passagens (próximas 24 horas)

TLE

AtualizadoSource: Space-Track

Época: Sep 14, 2026, 22:21 UTC

1 20792U 90081E   26257.93194147  .00000512  00000-0  25889-3 0  9991
2 20792  98.7736 246.3143 0015011 131.9583 228.2875 14.20420278856185

Acompanhe CZ-4 DEB em tempo real com AllMySat

Download on the App Store